time, beta470, beta532, beta650
yyyy/mm/dd HH:MM:SS.fff, counts, counts, counts
2023/06/19 16:55:26.035, 132, 158, 98
2023/06/19 16:55:27.170, 125, 160, 99
2023/06/19 16:55:28.290, 126, 168, 115
2023/06/19 16:55:29.426, 142, 166, 111
2023/06/19 16:55:30.562, 135, 162, 104
2023/06/19 16:55:31.682, 128, 177, 104
2023/06/19 16:55:32.818, 128, 162, 111
2023/06/19 16:55:33.938, 127, 167, 101
2023/06/19 16:55:35.074, 126, 162, 96
2023/06/19 16:55:36.210, 130, 176, 104
2023/06/19 16:55:37.330, 145, 168, 96
2023/06/19 16:55:38.466, 131, 168, 98
2023/06/19 16:55:39.602, 135, 168, 100
2023/06/19 16:55:40.722, 124, 165, 103
2023/06/19 16:55:41.858, 130, 161, 98
2023/06/19 16:55:42.978, 135, 164, 95
2023/06/19 16:55:44.113, 131, 179, 102
2023/06/19 16:55:45.249, 125, 165, 103
2023/06/19 16:55:46.369, 130, 164, 103
2023/06/19 16:55:47.505, 135, 161, 117
2023/06/19 16:55:48.640, 143, 165, 96
2023/06/19 16:55:49.761, 131, 158, 98
2023/06/19 16:55:50.896, 128, 159, 102
2023/06/19 16:55:52.033, 131, 165, 103
2023/06/19 16:55:53.153, 136, 163, 104
2023/06/19 16:55:54.289, 129, 167, 95
2023/06/19 16:55:55.425, 131, 166, 100
2023/06/19 16:55:56.545, 127, 161, 121
2023/06/19 16:55:57.680, 127, 160, 103
2023/06/19 16:55:58.816, 132, 164, 102
2023/06/19 16:55:59.936, 130, 165, 103
2023/06/19 16:56:01.072, 123, 164, 98
2023/06/19 16:56:02.192, 132, 161, 101
2023/06/19 16:56:03.328, 130, 163, 99
2023/06/19 16:56:04.463, 129, 177, 98
2023/06/19 16:56:05.584, 135, 167, 99
2023/06/19 16:56:06.720, 124, 164, 101
2023/06/19 16:56:07.855, 129, 162, 104
2023/06/19 16:56:08.976, 129, 180, 97
2023/06/19 16:56:10.112, 129, 182, 103
2023/06/19 16:56:11.232, 134, 168, 97
2023/06/19 16:56:12.368, 130, 183, 100
2023/06/19 16:56:13.503, 136, 163, 99
2023/06/19 16:56:14.624, 130, 174, 99
2023/06/19 16:56:15.759, 129, 147, 195
2023/06/19 16:56:16.895, 129, 155, 101
2023/06/19 16:56:18.015, 128, 171, 101
2023/06/19 16:56:19.152, 129, 166, 95
2023/06/19 16:56:20.287, 125, 170, 108
2023/06/19 16:56:21.407, 127, 158, 101
2023/06/19 16:56:22.543, 131, 167, 102
2023/06/19 16:56:23.678, 130, 161, 100
2023/06/19 16:56:24.799, 123, 155, 101
2023/06/19 16:56:25.935, 125, 168, 95
2023/06/19 16:56:27.054, 128, 165, 102
2023/06/19 16:56:28.190, 128, 176, 99
2023/06/19 16:56:29.327, 130, 169, 102
2023/06/19 16:56:30.446, 127, 203, 102
2023/06/19 16:56:31.583, 129, 177, 101
2023/06/19 16:56:32.718, 126, 172, 97
2023/06/19 16:56:33.838, 130, 170, 101
2023/06/19 16:56:34.974, 133, 171, 112
2023/06/19 16:56:36.094, 125, 162, 100
2023/06/19 16:56:37.230, 127, 165, 98
2023/06/19 16:56:38.366, 126, 161, 95
2023/06/19 16:56:39.486, 126, 159, 97
2023/06/19 16:56:40.622, 135, 177, 98
2023/06/19 16:56:41.758, 133, 177, 100
2023/06/19 16:56:42.878, 132, 179, 100
2023/06/19 16:56:44.014, 131, 168, 102
2023/06/19 16:56:45.150, 138, 161, 109
2023/06/19 16:56:46.270, 133, 164, 101
2023/06/19 16:56:47.406, 128, 166, 106
2023/06/19 16:56:48.525, 132, 176, 98
2023/06/19 16:56:49.661, 130, 174, 103
2023/06/19 16:56:50.797, 130, 165, 111
2023/06/19 16:56:51.917, 128, 221, 100
2023/06/19 16:56:53.053, 129, 197, 106
2023/06/19 16:56:54.189, 131, 164, 96
2023/06/19 16:56:55.309, 129, 161, 100
2023/06/19 16:56:56.445, 136, 164, 106
2023/06/19 16:56:57.581, 128, 174, 102
2023/06/19 16:56:58.701, 133, 161, 101
2023/06/19 16:56:59.837, 130, 163, 101
2023/06/19 16:57:00.973, 129, 170, 94
2023/06/19 16:57:02.093, 125, 169, 104
2023/06/19 16:57:03.229, 125, 155, 98
2023/06/19 16:57:04.349, 129, 161, 96
2023/06/19 16:57:05.484, 131, 176, 101
2023/06/19 16:57:06.620, 134, 165, 101
2023/06/19 16:57:07.740, 152, 173, 101
2023/06/19 16:57:08.876, 129, 170, 97
2023/06/19 16:57:10.013, 128, 164, 108
2023/06/19 16:57:11.132, 131, 172, 97
2023/06/19 16:57:12.268, 125, 164, 104
2023/06/19 16:57:13.404, 134, 164, 99
2023/06/19 16:57:14.524, 133, 166, 103
2023/06/19 16:57:15.660, 126, 164, 97
2023/06/19 16:57:16.796, 128, 174, 102
2023/06/19 16:57:17.916, 127, 170, 108
2023/06/19 16:57:19.052, 126, 159, 102
2023/06/19 16:57:20.171, 133, 167, 102
2023/06/19 16:57:21.308, 138, 159, 100
2023/06/19 16:57:22.443, 134, 162, 100
2023/06/19 16:57:23.563, 126, 159, 101
2023/06/19 16:57:24.699, 131, 165, 107
2023/06/19 16:57:25.835, 135, 173, 101
2023/06/19 16:57:26.955, 131, 164, 102
2023/06/19 16:57:28.091, 130, 157, 102
2023/06/19 16:57:29.227, 131, 166, 99
2023/06/19 16:57:30.347, 130, 179, 102
2023/06/19 16:57:31.483, 126, 168, 103
2023/06/19 16:57:32.619, 133, 164, 97
2023/06/19 16:57:33.739, 131, 160, 97
2023/06/19 16:57:34.875, 132, 173, 101
2023/06/19 16:57:35.995, 127, 159, 101
2023/06/19 16:57:37.131, 127, 173, 100
2023/06/19 16:57:38.266, 129, 167, 102
2023/06/19 16:57:39.386, 129, 164, 96
2023/06/19 16:57:40.522, 125, 161, 93
2023/06/19 16:57:41.658, 132, 161, 102
2023/06/19 16:57:42.778, 132, 165, 101
2023/06/19 16:57:43.914, 130, 162, 100
2023/06/19 16:57:45.050, 140, 160, 102
2023/06/19 16:57:46.170, 125, 163, 99
2023/06/19 16:57:47.306, 128, 161, 110
2023/06/19 16:57:48.425, 132, 186, 108
2023/06/19 16:57:49.562, 131, 175, 101
2023/06/19 16:57:50.698, 127, 173, 110
2023/06/19 16:57:51.817, 129, 173, 109
2023/06/19 16:57:52.953, 129, 163, 102
2023/06/19 16:57:54.089, 136, 163, 111
2023/06/19 16:57:55.209, 128, 164, 100
2023/06/19 16:57:56.345, 132, 165, 103
2023/06/19 16:57:57.481, 126, 168, 102
2023/06/19 16:57:58.601, 134, 163, 107
2023/06/19 16:57:59.737, 128, 159, 100
2023/06/19 16:58:00.873, 128, 162, 103
2023/06/19 16:58:01.993, 135, 172, 104
2023/06/19 16:58:03.129, 132, 163, 107
2023/06/19 16:58:04.265, 128, 163, 105
2023/06/19 16:58:05.385, 130, 165, 97
2023/06/19 16:58:06.521, 134, 173, 101
2023/06/19 16:58:07.657, 131, 160, 101
2023/06/19 16:58:08.776, 128, 168, 96
2023/06/19 16:58:09.913, 137, 159, 94
2023/06/19 16:58:11.032, 124, 164, 100
2023/06/19 16:58:12.168, 129, 159, 103
2023/06/19 16:58:13.304, 130, 161, 98
2023/06/19 16:58:14.424, 153, 174, 99
2023/06/19 16:58:15.560, 126, 163, 101
2023/06/19 16:58:16.696, 131, 156, 98
2023/06/19 16:58:17.815, 140, 160, 102
2023/06/19 16:58:18.952, 122, 161, 99
2023/06/19 16:58:20.088, 126, 199, 111
2023/06/19 16:58:21.208, 127, 177, 98
2023/06/19 16:58:22.344, 130, 164, 99
2023/06/19 16:58:23.464, 130, 164, 96
2023/06/19 16:58:24.600, 127, 160, 100
2023/06/19 16:58:25.735, 132, 170, 102
2023/06/19 16:58:26.855, 131, 166, 101
2023/06/19 16:58:27.992, 132, 168, 108
2023/06/19 16:58:29.127, 131, 176, 102
2023/06/19 16:58:30.247, 131, 199, 97
2023/06/19 16:58:31.383, 132, 173, 101
2023/06/19 16:58:32.503, 137, 173, 99
2023/06/19 16:58:33.639, 145, 162, 100
2023/06/19 16:58:34.775, 129, 172, 105
2023/06/19 16:58:35.895, 127, 167, 100
2023/06/19 16:58:37.031, 126, 169, 103
2023/06/19 16:58:38.167, 123, 166, 102
2023/06/19 16:58:39.287, 129, 178, 105
2023/06/19 16:58:40.423, 136, 168, 99
2023/06/19 16:58:41.559, 135, 167, 94
2023/06/19 16:58:42.678, 133, 165, 100
2023/06/19 16:58:43.814, 129, 156, 99
2023/06/19 16:58:44.934, 128, 165, 97
2023/06/19 16:58:46.070, 134, 190, 101
2023/06/19 16:58:47.206, 132, 178, 106
2023/06/19 16:58:48.326, 128, 168, 106
2023/06/19 16:58:49.462, 133, 168, 97
2023/06/19 16:58:50.598, 132, 163, 101
2023/06/19 16:58:51.718, 127, 161, 98
2023/06/19 16:58:52.854, 132, 155, 100
2023/06/19 16:58:53.990, 133, 181, 104
2023/06/19 16:58:55.110, 130, 171, 101
2023/06/19 16:58:56.246, 130, 162, 103
2023/06/19 16:58:57.382, 130, 169, 106
2023/06/19 16:58:58.501, 135, 176, 98
2023/06/19 16:58:59.637, 135, 172, 96
2023/06/19 16:59:00.757, 132, 232, 104
2023/06/19 16:59:01.893, 146, 155, 100
2023/06/19 16:59:03.029, 128, 166, 99
2023/06/19 16:59:04.149, 130, 167, 108
2023/06/19 16:59:05.285, 133, 178, 99
2023/06/19 16:59:06.421, 131, 183, 101
2023/06/19 16:59:07.541, 127, 170, 109
2023/06/19 16:59:08.677, 132, 164, 106
2023/06/19 16:59:09.813, 136, 171, 105
2023/06/19 16:59:10.932, 186, 157, 102
2023/06/19 16:59:12.069, 130, 167, 102
2023/06/19 16:59:13.204, 132, 183, 100
2023/06/19 16:59:14.324, 130, 163, 103
2023/06/19 16:59:15.460, 137, 183, 100
2023/06/19 16:59:16.580, 135, 165, 105
2023/06/19 16:59:17.716, 126, 158, 104
2023/06/19 16:59:18.852, 133, 210, 101
2023/06/19 16:59:19.972, 136, 203, 98
2023/06/19 16:59:21.108, 131, 159, 115
2023/06/19 16:59:22.244, 129, 169, 105
2023/06/19 16:59:23.364, 127, 168, 101
2023/06/19 16:59:24.500, 135, 172, 104
2023/06/19 16:59:25.636, 130, 162, 98
2023/06/19 16:59:26.756, 130, 164, 107
2023/06/19 16:59:27.892, 134, 163, 99
2023/06/19 16:59:29.027, 127, 166, 102
2023/06/19 16:59:30.147, 131, 169, 107
2023/06/19 16:59:31.284, 134, 175, 98
2023/06/19 16:59:32.404, 137, 168, 106
2023/06/19 16:59:33.539, 130, 156, 105
2023/06/19 16:59:34.675, 127, 182, 104
2023/06/19 16:59:35.795, 129, 168, 99
2023/06/19 16:59:36.931, 129, 179, 101
2023/06/19 16:59:38.067, 129, 184, 97
2023/06/19 16:59:39.187, 128, 172, 101
2023/06/19 16:59:40.323, 131, 163, 104
2023/06/19 16:59:41.443, 128, 164, 102
2023/06/19 16:59:42.578, 136, 169, 96
2023/06/19 16:59:43.715, 132, 157, 98
2023/06/19 16:59:44.835, 128, 164, 99
2023/06/19 16:59:45.971, 130, 160, 97
2023/06/19 16:59:47.106, 131, 167, 94
2023/06/19 16:59:48.226, 132, 166, 107
2023/06/19 16:59:49.362, 126, 163, 107
2023/06/19 16:59:50.498, 128, 179, 100
2023/06/19 16:59:51.618, 131, 181, 101
2023/06/19 16:59:52.754, 131, 206, 105
2023/06/19 16:59:53.874, 142, 173, 114
2023/06/19 16:59:55.010, 124, 173, 98
2023/06/19 16:59:56.146, 128, 169, 96
2023/06/19 16:59:57.266, 126, 160, 103
2023/06/19 16:59:58.402, 129, 170, 97
2023/06/19 16:59:59.538, 134, 171, 104
2023/06/19 17:00:00.657, 137, 158, 101
2023/06/19 17:00:01.793, 131, 172, 98
2023/06/19 17:00:02.929, 129, 177, 110
2023/06/19 17:00:04.049, 132, 172, 104
2023/06/19 17:00:05.185, 125, 158, 96
2023/06/19 17:00:06.305, 132, 164, 97
2023/06/19 17:00:07.441, 129, 170, 102
2023/06/19 17:00:08.577, 132, 163, 102
2023/06/19 17:00:09.696, 133, 179, 124
2023/06/19 17:00:10.833, 126, 162, 130
2023/06/19 17:00:11.969, 141, 175, 107
2023/06/19 17:00:13.089, 128, 165, 98
2023/06/19 17:00:14.225, 150, 161, 98
2023/06/19 17:00:15.361, 129, 174, 98
2023/06/19 17:00:16.481, 129, 161, 99
2023/06/19 17:00:17.617, 126, 164, 101
2023/06/19 17:00:18.737, 129, 166, 99
2023/06/19 17:00:19.872, 133, 158, 99
2023/06/19 17:00:21.008, 133, 180, 133
2023/06/19 17:00:22.128, 133, 171, 106
2023/06/19 17:00:23.264, 125, 161, 99
2023/06/19 17:00:24.400, 128, 160, 103
2023/06/19 17:00:25.520, 134, 166, 98
2023/06/19 17:00:26.656, 131, 168, 105
2023/06/19 17:00:27.776, 130, 168, 109
2023/06/19 17:00:28.911, 128, 164, 109
2023/06/19 17:00:30.048, 131, 169, 109
2023/06/19 17:00:31.168, 134, 173, 108
2023/06/19 17:00:32.304, 128, 172, 107
2023/06/19 17:00:33.440, 139, 167, 108
2023/06/19 17:00:34.560, 137, 160, 106
2023/06/19 17:00:35.695, 134, 174, 114
2023/06/19 17:00:36.831, 143, 169, 104
2023/06/19 17:00:37.951, 143, 173, 103
2023/06/19 17:00:39.087, 135, 220, 106
2023/06/19 17:00:40.223, 135, 182, 111
2023/06/19 17:00:41.343, 138, 181, 110
2023/06/19 17:00:42.479, 141, 177, 110
2023/06/19 17:00:43.615, 134, 185, 111
2023/06/19 17:00:44.734, 131, 180, 102
2023/06/19 17:00:45.871, 144, 174, 103
2023/06/19 17:00:46.991, 167, 166, 98
2023/06/19 17:00:48.127, 144, 202, 107
2023/06/19 17:00:49.263, 137, 182, 105
2023/06/19 17:00:50.383, 153, 176, 101
2023/06/19 17:00:51.519, 133, 173, 101
2023/06/19 17:00:52.655, 139, 170, 102
2023/06/19 17:00:53.774, 134, 176, 106
2023/06/19 17:00:54.911, 136, 177, 101
2023/06/19 17:00:56.046, 131, 181, 98
2023/06/19 17:00:57.165, 137, 177, 99
2023/06/19 17:00:58.302, 133, 181, 104
2023/06/19 17:00:59.438, 134, 182, 104
2023/06/19 17:01:00.558, 143, 169, 119
2023/06/19 17:01:01.694, 157, 173, 106
2023/06/19 17:01:02.830, 139, 164, 97
2023/06/19 17:01:03.950, 141, 165, 100
2023/06/19 17:01:05.086, 131, 174, 103
2023/06/19 17:01:06.205, 130, 166, 96
2023/06/19 17:01:07.342, 131, 158, 97
2023/06/19 17:01:08.478, 129, 162, 98
2023/06/19 17:01:09.598, 125, 157, 98
2023/06/19 17:01:10.733, 127, 159, 105
2023/06/19 17:01:11.869, 134, 169, 98
2023/06/19 17:01:12.989, 129, 198, 92
2023/06/19 17:01:14.125, 132, 155, 93
2023/06/19 17:01:15.245, 122, 158, 95
2023/06/19 17:01:16.381, 134, 165, 98
2023/06/19 17:01:17.517, 128, 166, 103
2023/06/19 17:01:18.637, 133, 157, 101
2023/06/19 17:01:19.773, 127, 156, 96
2023/06/19 17:01:20.893, 123, 164, 96
2023/06/19 17:01:22.029, 128, 165, 97
2023/06/19 17:01:23.164, 124, 162, 86
2023/06/19 17:01:24.285, 122, 159, 91
2023/06/19 17:01:25.420, 121, 163, 93
2023/06/19 17:01:26.556, 121, 154, 91
2023/06/19 17:01:27.676, 124, 150, 94
2023/06/19 17:01:28.812, 126, 146, 90
2023/06/19 17:01:29.932, 123, 153, 91
2023/06/19 17:01:31.068, 121, 156, 91
2023/06/19 17:01:32.188, 118, 142, 92
2023/06/19 17:01:33.324, 124, 160, 90
2023/06/19 17:01:34.460, 117, 152, 93
2023/06/19 17:01:35.580, 119, 149, 88
2023/06/19 17:01:36.716, 123, 142, 91
2023/06/19 17:01:37.836, 120, 154, 92
2023/06/19 17:01:38.972, 117, 145, 100
2023/06/19 17:01:40.108, 120, 146, 91
2023/06/19 17:01:41.228, 119, 145, 93
2023/06/19 17:01:42.363, 116, 150, 87
2023/06/19 17:01:43.499, 114, 147, 87
2023/06/19 17:01:44.619, 117, 139, 84
2023/06/19 17:01:45.755, 113, 142, 87
2023/06/19 17:01:46.875, 121, 141, 89
2023/06/19 17:01:48.011, 116, 138, 88
2023/06/19 17:01:49.147, 120, 145, 86
2023/06/19 17:01:50.267, 116, 145, 87
2023/06/19 17:01:51.403, 116, 136, 85
2023/06/19 17:01:52.523, 116, 140, 87
2023/06/19 17:01:53.659, 114, 140, 87
2023/06/19 17:01:54.795, 116, 143, 84
2023/06/19 17:01:55.915, 114, 138, 82
2023/06/19 17:01:57.051, 114, 133, 96
2023/06/19 17:01:58.171, 117, 135, 86
2023/06/19 17:01:59.306, 112, 152, 83
2023/06/19 17:02:00.441, 114, 136, 81
2023/06/19 17:02:01.562, 115, 134, 85
2023/06/19 17:02:02.698, 114, 133, 83
2023/06/19 17:02:03.818, 111, 135, 84
2023/06/19 17:02:04.953, 113, 135, 83
2023/06/19 17:02:06.090, 121, 136, 83
2023/06/19 17:02:07.210, 109, 143, 88
2023/06/19 17:02:08.346, 116, 134, 83
2023/06/19 17:02:09.465, 109, 132, 80
2023/06/19 17:02:10.602, 109, 138, 81
2023/06/19 17:02:11.738, 112, 132, 83
2023/06/19 17:02:12.858, 109, 134, 77
2023/06/19 17:02:13.993, 111, 127, 80
2023/06/19 17:02:15.114, 113, 128, 80
2023/06/19 17:02:16.249, 111, 143, 83
2023/06/19 17:02:17.385, 110, 135, 81
2023/06/19 17:02:18.505, 110, 137, 80
2023/06/19 17:02:19.641, 108, 127, 82
2023/06/19 17:02:20.777, 109, 128, 82
2023/06/19 17:02:21.897, 121, 152, 83
2023/06/19 17:02:23.033, 109, 121, 77
2023/06/19 17:02:24.153, 109, 131, 80
2023/06/19 17:02:25.289, 110, 124, 78
2023/06/19 17:02:26.425, 107, 128, 87
2023/06/19 17:02:27.545, 108, 128, 78
2023/06/19 17:02:28.680, 109, 125, 78
2023/06/19 17:02:29.801, 107, 118, 82
2023/06/19 17:02:30.936, 106, 139, 84
2023/06/19 17:02:32.056, 107, 119, 75
2023/06/19 17:02:33.192, 106, 120, 75
2023/06/19 17:02:34.328, 109, 134, 79
2023/06/19 17:02:35.448, 104, 122, 80
2023/06/19 17:02:36.584, 107, 120, 76
2023/06/19 17:02:37.704, 109, 117, 72
2023/06/19 17:02:38.840, 107, 128, 73
2023/06/19 17:02:39.976, 106, 118, 70
2023/06/19 17:02:41.096, 103, 116, 71
2023/06/19 17:02:42.232, 102, 122, 74
2023/06/19 17:02:43.351, 105, 114, 76
2023/06/19 17:02:44.488, 102, 126, 78
2023/06/19 17:02:45.624, 107, 119, 74
2023/06/19 17:02:46.744, 113, 115, 75
2023/06/19 17:02:47.879, 106, 124, 77
2023/06/19 17:02:49.015, 108, 121, 75
2023/06/19 17:02:50.135, 110, 122, 75
2023/06/19 17:02:51.271, 106, 118, 74
2023/06/19 17:02:52.391, 104, 119, 72
2023/06/19 17:02:53.527, 103, 126, 77
2023/06/19 17:02:54.663, 105, 125, 76
2023/06/19 17:02:55.783, 102, 118, 71
2023/06/19 17:02:56.919, 108, 124, 71
2023/06/19 17:02:58.039, 101, 118, 72
2023/06/19 17:02:59.175, 99, 121, 77
2023/06/19 17:03:00.311, 100, 117, 74
2023/06/19 17:03:01.430, 103, 112, 75
2023/06/19 17:03:02.567, 109, 110, 70
2023/06/19 17:03:03.687, 98, 108, 69
2023/06/19 17:03:04.822, 102, 118, 75
2023/06/19 17:03:05.943, 100, 113, 71
2023/06/19 17:03:07.078, 101, 115, 75
2023/06/19 17:03:08.214, 103, 111, 74
2023/06/19 17:03:09.334, 103, 114, 72
2023/06/19 17:03:10.470, 103, 112, 74
2023/06/19 17:03:11.590, 99, 111, 69
2023/06/19 17:03:12.726, 97, 113, 73
2023/06/19 17:03:13.862, 103, 114, 72
2023/06/19 17:03:14.982, 100, 115, 70
2023/06/19 17:03:16.118, 99, 110, 71
2023/06/19 17:03:17.238, 99, 109, 72
2023/06/19 17:03:18.374, 100, 106, 67
2023/06/19 17:03:19.510, 96, 109, 72
2023/06/19 17:03:20.629, 98, 113, 77
2023/06/19 17:03:21.765, 96, 106, 70
2023/06/19 17:03:22.885, 99, 112, 68
2023/06/19 17:03:24.021, 96, 107, 73
2023/06/19 17:03:25.141, 97, 110, 70
2023/06/19 17:03:26.277, 99, 110, 68
2023/06/19 17:03:27.397, 98, 113, 73
2023/06/19 17:03:28.533, 97, 112, 73
2023/06/19 17:03:29.652, 99, 112, 74
2023/06/19 17:03:30.789, 99, 107, 73
2023/06/19 17:03:31.925, 99, 109, 73
2023/06/19 17:03:33.045, 98, 108, 70
2023/06/19 17:03:34.181, 98, 110, 67
2023/06/19 17:03:35.301, 103, 112, 70
2023/06/19 17:03:36.437, 97, 110, 69
2023/06/19 17:03:37.556, 100, 110, 69
2023/06/19 17:03:38.692, 95, 107, 70
2023/06/19 17:03:39.812, 99, 107, 71
2023/06/19 17:03:40.948, 94, 108, 73
2023/06/19 17:03:42.084, 96, 110, 69
2023/06/19 17:03:43.204, 97, 107, 69
2023/06/19 17:03:44.340, 98, 102, 71
2023/06/19 17:03:45.460, 97, 103, 69
2023/06/19 17:03:46.596, 93, 105, 68
2023/06/19 17:03:47.716, 101, 105, 70
2023/06/19 17:03:48.852, 95, 104, 70
2023/06/19 17:03:49.988, 99, 105, 67
2023/06/19 17:03:51.108, 94, 104, 69
2023/06/19 17:03:52.243, 95, 104, 66
2023/06/19 17:03:53.364, 95, 112, 71
2023/06/19 17:03:54.499, 91, 108, 72
2023/06/19 17:03:55.619, 93, 105, 66
2023/06/19 17:03:56.755, 98, 108, 67
2023/06/19 17:03:57.875, 96, 108, 67
2023/06/19 17:03:59.011, 93, 100, 68
2023/06/19 17:04:00.147, 95, 101, 63
2023/06/19 17:04:01.267, 98, 101, 71
2023/06/19 17:04:02.403, 97, 108, 73
2023/06/19 17:04:03.523, 94, 99, 69
2023/06/19 17:04:04.659, 93, 103, 71
2023/06/19 17:04:05.779, 92, 105, 70
2023/06/19 17:04:06.915, 91, 102, 64
2023/06/19 17:04:08.035, 92, 106, 66
2023/06/19 17:04:09.171, 94, 103, 70
2023/06/19 17:04:10.290, 94, 105, 67
2023/06/19 17:04:11.426, 92, 101, 66
2023/06/19 17:04:12.562, 95, 100, 67
2023/06/19 17:04:13.682, 93, 141, 65
2023/06/19 17:04:14.818, 92, 101, 75
2023/06/19 17:04:15.938, 94, 98, 69
2023/06/19 17:04:17.074, 92, 95, 63
2023/06/19 17:04:18.194, 92, 98, 66
2023/06/19 17:04:19.330, 90, 99, 68
2023/06/19 17:04:20.450, 94, 109, 65
2023/06/19 17:04:21.586, 91, 101, 67
2023/06/19 17:04:22.706, 91, 96, 66
2023/06/19 17:04:23.841, 92, 102, 65
2023/06/19 17:04:24.961, 90, 94, 65
2023/06/19 17:04:26.097, 89, 102, 66
2023/06/19 17:04:27.217, 92, 97, 68
2023/06/19 17:04:28.353, 93, 101, 65
2023/06/19 17:04:29.473, 90, 99, 64
2023/06/19 17:04:30.609, 94, 100, 65
2023/06/19 17:04:31.729, 90, 96, 69
2023/06/19 17:04:32.865, 89, 101, 67
2023/06/19 17:04:34.001, 91, 98, 64
2023/06/19 17:04:35.121, 90, 99, 63
2023/06/19 17:04:36.257, 89, 99, 63
2023/06/19 17:04:37.377, 93, 97, 62
2023/06/19 17:04:38.513, 91, 96, 62
2023/06/19 17:04:39.633, 88, 96, 64
2023/06/19 17:04:40.769, 89, 98, 66
2023/06/19 17:04:41.888, 92, 100, 62
2023/06/19 17:04:43.024, 90, 98, 64
2023/06/19 17:04:44.144, 88, 93, 65
2023/06/19 17:04:45.280, 89, 94, 62
2023/06/19 17:04:46.400, 88, 97, 65
2023/06/19 17:04:47.536, 90, 98, 66
2023/06/19 17:04:48.656, 89, 96, 63
2023/06/19 17:04:49.791, 89, 100, 65
2023/06/19 17:04:50.912, 89, 99, 62
2023/06/19 17:04:52.048, 89, 97, 62
2023/06/19 17:04:53.168, 89, 94, 61
2023/06/19 17:04:54.303, 90, 95, 65
2023/06/19 17:04:55.423, 89, 95, 62
2023/06/19 17:04:56.560, 90, 97, 61
2023/06/19 17:04:57.680, 88, 98, 65
2023/06/19 17:04:58.815, 89, 96, 66
2023/06/19 17:04:59.935, 89, 95, 67
2023/06/19 17:05:01.071, 87, 92, 63
2023/06/19 17:05:02.191, 90, 96, 68
2023/06/19 17:05:03.327, 88, 96, 62
2023/06/19 17:05:04.447, 89, 96, 63
2023/06/19 17:05:05.582, 88, 96, 66
2023/06/19 17:05:06.703, 87, 93, 65
2023/06/19 17:05:07.839, 87, 96, 62
2023/06/19 17:05:08.959, 87, 97, 65
2023/06/19 17:05:10.095, 87, 92, 62
2023/06/19 17:05:11.215, 88, 97, 65
2023/06/19 17:05:12.351, 86, 93, 65
2023/06/19 17:05:13.470, 86, 92, 64
2023/06/19 17:05:14.606, 87, 94, 65
2023/06/19 17:05:15.726, 91, 94, 66
2023/06/19 17:05:16.862, 86, 95, 61
2023/06/19 17:05:17.982, 87, 93, 62
2023/06/19 17:05:19.118, 90, 94, 60
2023/06/19 17:05:20.238, 87, 94, 64
2023/06/19 17:05:21.374, 89, 96, 63
2023/06/19 17:05:22.493, 89, 98, 64
2023/06/19 17:05:23.630, 89, 90, 61
2023/06/19 17:05:24.750, 88, 92, 60
2023/06/19 17:05:25.886, 89, 90, 65
2023/06/19 17:05:27.005, 89, 95, 61
2023/06/19 17:05:28.142, 88, 92, 62
2023/06/19 17:05:29.262, 87, 93, 62
2023/06/19 17:05:30.398, 87, 95, 64
2023/06/19 17:05:31.518, 86, 91, 64
2023/06/19 17:05:32.653, 86, 92, 61
2023/06/19 17:05:33.773, 85, 95, 64
2023/06/19 17:05:34.909, 86, 92, 58
2023/06/19 17:05:36.029, 89, 95, 64
2023/06/19 17:05:37.165, 92, 97, 63
2023/06/19 17:05:38.285, 87, 94, 61
2023/06/19 17:05:39.420, 87, 93, 63
2023/06/19 17:05:40.541, 85, 94, 60
2023/06/19 17:05:41.677, 86, 92, 61
2023/06/19 17:05:42.797, 89, 94, 64
2023/06/19 17:05:43.933, 87, 90, 63
2023/06/19 17:05:45.053, 90, 91, 62
2023/06/19 17:05:46.188, 87, 95, 64
2023/06/19 17:05:47.309, 87, 92, 61
2023/06/19 17:05:48.444, 84, 94, 62
2023/06/19 17:05:49.563, 84, 91, 65
2023/06/19 17:05:50.700, 87, 93, 149
2023/06/19 17:05:51.820, 90, 92, 60
2023/06/19 17:05:52.956, 86, 89, 62
2023/06/19 17:05:54.075, 87, 92, 62
2023/06/19 17:05:55.212, 87, 90, 65
2023/06/19 17:05:56.332, 87, 90, 62
2023/06/19 17:05:57.468, 87, 90, 59
2023/06/19 17:05:58.587, 86, 89, 60
2023/06/19 17:05:59.724, 88, 90, 64
2023/06/19 17:06:00.844, 86, 99, 64
2023/06/19 17:06:01.980, 88, 93, 64
2023/06/19 17:06:03.099, 88, 92, 64
2023/06/19 17:06:04.235, 86, 91, 65
2023/06/19 17:06:05.355, 88, 93, 61
2023/06/19 17:06:06.491, 88, 91, 61
2023/06/19 17:06:07.610, 89, 89, 61
2023/06/19 17:06:08.747, 87, 91, 62
2023/06/19 17:06:09.867, 86, 90, 61
2023/06/19 17:06:11.003, 87, 91, 61
2023/06/19 17:06:12.122, 88, 89, 60
2023/06/19 17:06:13.259, 87, 88, 63
2023/06/19 17:06:14.379, 87, 90, 59
2023/06/19 17:06:15.515, 85, 92, 63
2023/06/19 17:06:16.635, 86, 90, 62
2023/06/19 17:06:17.771, 84, 90, 62
2023/06/19 17:06:18.890, 86, 88, 60
2023/06/19 17:06:20.027, 85, 90, 63
2023/06/19 17:06:21.162, 88, 90, 61
2023/06/19 17:06:22.282, 86, 91, 62
2023/06/19 17:06:23.418, 86, 95, 64
2023/06/19 17:06:24.538, 85, 89, 58
2023/06/19 17:06:25.674, 83, 89, 63
2023/06/19 17:06:26.794, 83, 88, 61
2023/06/19 17:06:27.914, 85, 87, 61
2023/06/19 17:06:29.050, 85, 88, 65
2023/06/19 17:06:30.170, 85, 90, 61
2023/06/19 17:06:31.306, 86, 89, 61
2023/06/19 17:06:32.426, 85, 89, 61
2023/06/19 17:06:33.562, 90, 92, 58
2023/06/19 17:06:34.681, 85, 89, 60
2023/06/19 17:06:35.818, 85, 86, 63
2023/06/19 17:06:36.938, 88, 86, 61
2023/06/19 17:06:38.073, 86, 90, 59
2023/06/19 17:06:39.193, 84, 86, 62
2023/06/19 17:06:40.329, 87, 85, 60
2023/06/19 17:06:41.449, 85, 86, 60
2023/06/19 17:06:42.585, 83, 89, 59
2023/06/19 17:06:43.705, 84, 90, 59
2023/06/19 17:06:44.841, 82, 87, 61
2023/06/19 17:06:45.961, 84, 87, 63
2023/06/19 17:06:47.097, 88, 88, 61
2023/06/19 17:06:48.216, 85, 88, 61
2023/06/19 17:06:49.352, 85, 87, 62
2023/06/19 17:06:50.473, 85, 90, 60
2023/06/19 17:06:51.608, 86, 88, 60
2023/06/19 17:06:52.729, 85, 87, 62
2023/06/19 17:06:53.865, 84, 89, 62
2023/06/19 17:06:54.984, 86, 86, 62
2023/06/19 17:06:56.120, 84, 88, 60
2023/06/19 17:06:57.240, 85, 87, 64
2023/06/19 17:06:58.376, 85, 88, 62
2023/06/19 17:06:59.496, 87, 89, 62
2023/06/19 17:07:00.631, 87, 86, 60